SL-8 R/B

Last updated on Mon Jun 22 2026 00:02:13 GMT+0000 (Coordinated Universal Time)

1 21876U 92008B 26171.41007464 .00000127 00000+0 11472-3 0 9993 2 21876 82.9260 191.3913 0034036 205.4965 274.9574 13.75977754723541
UTC large
Height (km)
Speed (km/s)
/
Latitude / Longitude
Inclination (degrees)
Orbital Period (minutes)
Azimuth
Elevation
Range (km)
Doppler Factor

Next 0 passes for location: London (51.5072 / 0.1276)

No passes found over London.
SL-8 R/B